Simultaneous Nadir Overpasses (SNOs) Predictions

Prediction of SNOs between GOES-15 and METOP-A Satellite Orbit:

Table of predicted SNOs for the next 14.0 days since TLE Epoch: 7/27/2013
Index Date Time (GOES-15) GOES-15 Lat,Lon METOP-A Lat,Lon Distance(km) Time Diff (sec)
1 07/27/2013 06:46:26 -0.03,-135.38 -0.78,-138.82 392.42 80
2 07/28/2013 06:23:08 -0.01,-135.37 0.36,-133.84 175.70 80
3 07/29/2013 18:44:39 0.05,-135.38 0.74,-138.38 342.70 80
4 07/30/2013 18:21:20 0.02,-135.38 -0.39,-133.39 225.29 80
5 08/01/2013 06:43:01 -0.06,-135.35 -0.67,-137.98 299.99 80
6 08/02/2013 06:19:42 -0.03,-135.34 0.47,-132.99 267.43 80
7 08/03/2013 18:41:15 0.07,-135.34 0.57,-137.55 252.20 80
8 08/04/2013 18:17:56 0.04,-135.33 -0.57,-132.56 315.06 80
9 08/06/2013 06:39:36 -0.08,-135.30 -0.49,-137.15 210.93 80
10 08/07/2013 06:16:18 -0.05,-135.29 0.65,-132.16 355.84 80
11 08/08/2013 18:37:50 0.09,-135.27 0.38,-136.72 164.89 80
12 08/09/2013 18:14:32 0.06,-135.25 -0.76,-131.74 401.80 80




NCC Satellite Simultaneous Nadir Overpasses (SNOs) Prediction Service
